DW6267 Weather Reports


time (UTC)temp
C
wind
direction
speed
KPH
gust
KPH
rain 1hr
cm
rain 24hr
cm
rain mn
cm
humidity
%
barometer
mb
20260502130345 3 204 0.0 0.0 0.00 0.00 0.00 98 1015.9
20260502120411 3 204 0.0 0.0 0.00 0.00 0.00 98 1015.4
20260502110343 4 204 0.0 0.0 0.00 0.00 0.00 95 1015.7
20260502100334 5 204 0.0 0.0 0.00 0.00 0.00 93 1015.3
20260502090343 4 204 0.0 0.0 0.00 0.00 0.00 91 1014.7
20260502070401 5 204 0.0 0.0 0.00 0.00 0.00 90 1014.7
20260502060346 6 204 0.0 0.0 0.00 0.00 0.00 87 1014.7
20260502050341 7 204 0.0 0.0 0.00 0.00 0.00 84 1014.9
20260502040332 8 204 0.0 0.0 0.00 0.00 0.00 82 1014.2
20260502030355 10 204 0.0 0.0 0.00 0.00 0.00 77 1013.2
20260502020334 12 204 0.0 0.0 0.00 0.00 0.00 67 1012.4
20260502010350 15 204 0.0 0.0 0.00 0.00 0.00 55 1012.6
20260502000357 18 204 0.0 0.0 0.00 0.00 0.00 45 1012.8
20260501230342 22 300 0.0 0.0 0.00 0.00 0.00 27 1013.1
20260501220348 21 265 0.0 0.0 0.00 0.00 0.00 27 1013.9
20260501210337 20 248 0.0 0.0 0.00 0.00 0.00 27 1014.1
20260501200332 20 94 1.6 0.0 0.00 0.00 0.00 30 1014.7
20260501190334 19 269 0.0 0.0 0.00 0.00 0.00 29 1015.1
20260501180339 18 77 0.0 0.0 0.00 0.00 0.00 32 1016.1
20260501170340 15 262 0.0 0.0 0.00 0.00 0.00 46 1015.8
20260501160343 11 262 0.0 0.0 0.00 0.00 0.00 71 1016.9
20260501150328 7 262 0.0 0.0 0.00 0.00 0.00 85 1017.5
20260501140410 2 262 0.0 0.0 0.00 0.00 0.00 100 1016.8